Time,TemperatureF,DewpointF,PressureIn,WindDirection,WindDirectionDegrees,WindSpeedMPH,WindSpeedGustMPH,Humidity,HourlyPrecipIn,Conditions,Clouds,dailyrainin,SoftwareType,DateUTC
2013-11-01 00:01:00,64.0,58.1,29.67,ESE,117,3.0,5.0,81,0.00,,,0.00,Wunderground v.1.15,2013-11-01 04:01:00,
2013-11-01 00:03:00,64.1,58.1,29.67,ENE,66,4.0,5.0,81,0.00,,,0.00,Wunderground v.1.15,2013-11-01 04:03:00,
2013-11-01 00:04:00,64.1,58.1,29.67,ENE,61,4.0,5.0,81,0.00,,,0.00,Wunderground v.1.15,2013-11-01 04:04:00,
2013-11-01 00:07:00,64.2,58.2,29.67,ESE,109,3.0,5.0,81,0.00,,,0.00,Wunderground v.1.15,2013-11-01 04:07:00,
2013-11-01 00:13:00,64.1,58.1,29.66,South,174,3.0,4.0,81,0.00,,,0.00,Wunderground v.1.15,2013-11-01 04:13:00,
2013-11-01 00:21:00,64.2,58.2,29.65,ESE,111,4.0,4.0,81,0.00,,,0.00,Wunderground v.1.15,2013-11-01 04:21:00,
2013-11-01 00:26:00,64.3,58.0,29.65,SE,132,4.0,9.0,80,0.00,,,0.00,Wunderground v.1.15,2013-11-01 04:26:00,
2013-11-01 00:31:00,64.4,58.1,29.65,East,93,5.0,6.0,80,0.00,,,0.00,Wunderground v.1.15,2013-11-01 04:31:00,
2013-11-01 00:38:00,64.5,58.2,29.66,East,97,4.0,6.0,80,0.00,,,0.00,Wunderground v.1.15,2013-11-01 04:38:00,
2013-11-01 00:43:00,64.4,58.1,29.65,SSE,157,3.0,4.0,80,0.00,,,0.00,Wunderground v.1.15,2013-11-01 04:43:00,
2013-11-01 00:48:00,64.6,58.3,29.64,East,101,3.0,6.0,80,0.00,,,0.00,Wunderground v.1.15,2013-11-01 04:48:00,
2013-11-01 00:53:00,64.7,58.0,29.64,East,94,4.0,7.0,79,0.00,,,0.00,Wunderground v.1.15,2013-11-01 04:53:00,
2013-11-01 00:58:00,64.6,57.9,29.63,East,96,3.0,7.0,79,0.00,,,0.00,Wunderground v.1.15,2013-11-01 04:58:00,
2013-11-01 01:04:00,64.7,58.4,29.63,ENE,59,3.0,7.0,80,0.00,,,0.00,Wunderground v.1.15,2013-11-01 05:04:00,
2013-11-01 01:10:00,64.7,58.4,29.64,East,97,3.0,10.0,80,0.00,,,0.00,Wunderground v.1.15,2013-11-01 05:10:00,
2013-11-01 01:15:00,64.6,58.6,29.64,West,259,3.0,4.0,81,0.00,,,0.00,Wunderground v.1.15,2013-11-01 05:15:00,
2013-11-01 01:22:00,64.4,58.4,29.63,East,90,3.0,6.0,81,0.00,,,0.00,Wunderground v.1.15,2013-11-01 05:22:00,
2013-11-01 01:27:00,64.4,58.4,29.62,SE,132,3.0,7.0,81,0.00,,,0.00,Wunderground v.1.15,2013-11-01 05:27:00,
2013-11-01 01:35:00,64.2,58.6,29.62,ENE,75,3.0,3.0,82,0.00,,,0.00,Wunderground v.1.15,2013-11-01 05:35:00,
2013-11-01 01:42:00,64.0,58.7,29.61,ESE,113,3.0,4.0,83,0.00,,,0.00,Wunderground v.1.15,2013-11-01 05:42:00,
2013-11-01 01:46:00,63.9,58.6,29.60,ESE,115,3.0,9.0,83,0.00,,,0.00,Wunderground v.1.15,2013-11-01 05:46:00,
2013-11-01 01:51:00,63.8,58.9,29.61,ENE,72,3.0,3.0,84,0.00,,,0.00,Wunderground v.1.15,2013-11-01 05:51:00,
2013-11-01 01:56:00,63.6,58.7,29.59,SSE,153,3.0,6.0,84,0.00,,,0.00,Wunderground v.1.15,2013-11-01 05:56:00,
2013-11-01 02:01:00,63.4,58.8,29.59,SSE,163,4.0,6.0,85,0.00,,,0.01,Wunderground v.1.15,2013-11-01 06:01:00,
2013-11-01 02:07:00,63.2,58.6,29.58,ESE,111,5.0,9.0,85,0.00,,,0.01,Wunderground v.1.15,2013-11-01 06:07:00,
2013-11-01 02:12:00,63.1,58.8,29.59,SE,125,4.0,7.0,86,0.00,,,0.01,Wunderground v.1.15,2013-11-01 06:12:00,
2013-11-01 02:17:00,63.2,58.9,29.59,SSW,198,4.0,7.0,86,0.04,,,0.02,Wunderground v.1.15,2013-11-01 06:17:00,
2013-11-01 02:23:00,63.1,58.8,29.58,East,88,4.0,5.0,86,0.04,,,0.02,Wunderground v.1.15,2013-11-01 06:23:00,
2013-11-01 02:29:00,63.1,58.8,29.58,SE,133,3.0,5.0,86,0.04,,,0.02,Wunderground v.1.15,2013-11-01 06:29:00,
2013-11-01 02:35:00,63.3,59.0,29.58,ESE,115,3.0,8.0,86,0.00,,,0.02,Wunderground v.1.15,2013-11-01 06:35:00,
2013-11-01 02:40:00,63.4,58.8,29.58,ESE,120,2.0,8.0,85,0.00,,,0.02,Wunderground v.1.15,2013-11-01 06:40:00,
2013-11-01 02:45:00,63.6,59.0,29.58,SE,129,2.0,5.0,85,0.00,,,0.02,Wunderground v.1.15,2013-11-01 06:45:00,
2013-11-01 02:51:00,63.9,59.0,29.58,ESE,113,4.0,4.0,84,0.00,,,0.02,Wunderground v.1.15,2013-11-01 06:51:00,
2013-11-01 02:56:00,64.0,59.1,29.57,SE,144,5.0,6.0,84,0.00,,,0.02,Wunderground v.1.15,2013-11-01 06:56:00,
2013-11-01 03:02:00,64.0,59.1,29.53,SE,128,6.0,8.0,84,0.00,,,0.02,Wunderground v.1.15,2013-11-01 07:02:00,
2013-11-01 03:07:00,64.0,59.1,29.57,ESE,107,5.0,8.0,84,0.00,,,0.02,Wunderground v.1.15,2013-11-01 07:07:00,
2013-11-01 03:12:00,64.2,58.9,29.55,SE,143,4.0,5.0,83,0.00,,,0.02,Wunderground v.1.15,2013-11-01 07:12:00,
2013-11-01 03:18:00,64.5,59.2,29.55,SE,130,4.0,5.0,83,0.00,,,0.02,Wunderground v.1.15,2013-11-01 07:18:00,
2013-11-01 03:24:00,64.6,59.3,29.56,East,80,2.0,3.0,83,0.00,,,0.02,Wunderground v.1.15,2013-11-01 07:24:00,
2013-11-01 03:29:00,64.6,59.3,29.56,ESE,112,1.0,3.0,83,0.00,,,0.02,Wunderground v.1.15,2013-11-01 07:29:00,
2013-11-01 03:35:00,64.7,59.4,29.56,South,171,1.0,2.0,83,0.00,,,0.02,Wunderground v.1.15,2013-11-01 07:35:00,
2013-11-01 03:40:00,64.8,59.2,29.55,SE,134,2.0,4.0,82,0.00,,,0.02,Wunderground v.1.15,2013-11-01 07:40:00,
2013-11-01 03:46:00,64.9,59.3,29.55,East,98,2.0,4.0,82,0.00,,,0.02,Wunderground v.1.15,2013-11-01 07:46:00,
2013-11-01 03:51:00,65.0,59.4,29.54,ESE,121,2.0,2.0,82,0.00,,,0.02,Wunderground v.1.15,2013-11-01 07:51:00,
2013-11-01 03:56:00,65.1,59.5,29.54,East,96,2.0,3.0,82,0.00,,,0.02,Wunderground v.1.15,2013-11-01 07:56:00,
2013-11-01 04:02:00,65.0,59.4,29.53,SE,144,1.0,2.0,82,0.00,,,0.02,Wunderground v.1.15,2013-11-01 08:02:00,
2013-11-01 04:08:00,65.4,59.8,29.53,SSE,150,3.0,7.0,82,0.00,,,0.02,Wunderground v.1.15,2013-11-01 08:08:00,
2013-11-01 04:13:00,65.6,59.6,29.53,SE,130,4.0,5.0,81,0.00,,,0.02,Wunderground v.1.15,2013-11-01 08:13:00,
2013-11-01 04:19:00,65.6,60.0,29.52,East,90,4.0,6.0,82,0.00,,,0.02,Wunderground v.1.15,2013-11-01 08:19:00,
2013-11-01 04:24:00,65.8,59.8,29.52,ESE,117,4.0,6.0,81,0.00,,,0.02,Wunderground v.1.15,2013-11-01 08:24:00,
2013-11-01 04:29:00,65.7,60.1,29.51,SE,144,3.0,8.0,82,0.00,,,0.02,Wunderground v.1.15,2013-11-01 08:29:00,
2013-11-01 04:35:00,65.6,60.0,29.51,SE,124,2.0,3.0,82,0.00,,,0.02,Wunderground v.1.15,2013-11-01 08:35:00,
2013-11-01 04:42:00,65.7,60.1,29.51,East,86,2.0,3.0,82,0.00,,,0.02,Wunderground v.1.15,2013-11-01 08:42:00,
2013-11-01 04:47:00,65.8,60.2,29.51,East,96,2.0,3.0,82,0.00,,,0.02,Wunderground v.1.15,2013-11-01 08:47:00,
2013-11-01 04:53:00,65.8,60.2,29.51,East,96,1.0,2.0,82,0.00,,,0.02,Wunderground v.1.15,2013-11-01 08:53:00,
2013-11-01 04:59:00,65.9,60.2,29.51,ESE,109,1.0,4.0,82,0.00,,,0.02,Wunderground v.1.15,2013-11-01 08:59:00,
2013-11-01 05:05:00,66.3,60.3,29.51,ESE,116,3.0,5.0,81,0.00,,,0.02,Wunderground v.1.15,2013-11-01 09:05:00,
2013-11-01 05:10:00,66.8,60.4,29.51,ESE,121,3.0,4.0,80,0.00,,,0.02,Wunderground v.1.15,2013-11-01 09:10:00,
2013-11-01 05:16:00,67.2,60.8,29.50,East,97,2.0,7.0,80,0.00,,,0.02,Wunderground v.1.15,2013-11-01 09:16:00,
2013-11-01 05:21:00,67.4,60.7,29.50,East,82,3.0,4.0,79,0.00,,,0.02,Wunderground v.1.15,2013-11-01 09:21:00,
2013-11-01 05:28:00,68.1,61.0,29.50,SSE,162,4.0,7.0,78,0.00,,,0.02,Wunderground v.1.15,2013-11-01 09:28:00,
2013-11-01 05:34:00,68.0,60.9,29.50,SE,127,3.0,6.0,78,0.00,,,0.02,Wunderground v.1.15,2013-11-01 09:34:00,
2013-11-01 05:40:00,68.3,61.2,29.50,SE,132,3.0,3.0,78,0.00,,,0.02,Wunderground v.1.15,2013-11-01 09:40:00,
2013-11-01 05:49:00,68.5,61.4,29.49,ESE,103,3.0,4.0,78,0.00,,,0.02,Wunderground v.1.15,2013-11-01 09:49:00,
2013-11-01 05:54:00,68.5,61.4,29.50,SE,144,3.0,8.0,78,0.00,,,0.02,Wunderground v.1.15,2013-11-01 09:54:00,
2013-11-01 05:59:00,68.6,61.1,29.50,East,80,3.0,8.0,77,0.00,,,0.02,Wunderground v.1.15,2013-11-01 09:59:00,
2013-11-01 06:05:00,68.7,61.2,29.50,ESE,115,4.0,11.0,77,0.00,,,0.02,Wunderground v.1.15,2013-11-01 10:05:00,
2013-11-01 06:11:00,68.7,61.6,29.50,East,88,4.0,5.0,78,0.00,,,0.02,Wunderground v.1.15,2013-11-01 10:11:00,
2013-11-01 06:17:00,68.5,61.4,29.51,East,94,3.0,5.0,78,0.00,,,0.02,Wunderground v.1.15,2013-11-01 10:17:00,
2013-11-01 06:22:00,68.5,61.4,29.51,WNW,301,3.0,5.0,78,0.00,,,0.02,Wunderground v.1.15,2013-11-01 10:22:00,
2013-11-01 06:28:00,68.5,61.7,29.53,WNW,290,3.0,5.0,79,0.00,,,0.02,Wunderground v.1.15,2013-11-01 10:28:00,
2013-11-01 06:34:00,67.0,61.3,29.56,West,262,4.0,11.0,82,0.00,,,0.02,Wunderground v.1.15,2013-11-01 10:34:00,
2013-11-01 06:39:00,62.6,57.7,29.56,NW,324,9.0,12.0,84,0.72,,,0.06,Wunderground v.1.15,2013-11-01 10:39:00,
2013-11-01 06:45:00,59.7,56.8,29.57,WNW,293,13.0,23.0,90,0.57,,,0.15,Wunderground v.1.15,2013-11-01 10:45:00,
2013-11-01 06:51:00,59.2,56.6,29.57,WNW,296,11.0,12.0,91,1.05,,,0.22,Wunderground v.1.15,2013-11-01 10:51:00,
2013-11-01 06:56:00,59.0,56.7,29.58,WNW,286,7.0,12.0,92,0.41,,,0.27,Wunderground v.1.15,2013-11-01 10:56:00,
2013-11-01 07:01:00,59.0,57.0,29.57,WNW,293,5.0,5.0,93,0.46,,,0.30,Wunderground v.1.15,2013-11-01 11:01:00,
2013-11-01 07:07:00,59.0,57.6,29.58,NW,309,4.0,6.0,95,0.22,,,0.32,Wunderground v.1.15,2013-11-01 11:07:00,
2013-11-01 07:13:00,59.0,57.0,29.58,WNW,292,3.0,4.0,93,0.13,,,0.33,Wunderground v.1.15,2013-11-01 11:13:00,
2013-11-01 07:19:00,59.0,57.0,29.57,WNW,300,2.0,4.0,93,0.10,,,0.34,Wunderground v.1.15,2013-11-01 11:19:00,
2013-11-01 07:25:00,59.0,57.6,29.57,WNW,300,1.0,2.0,95,0.07,,,0.34,Wunderground v.1.15,2013-11-01 11:25:00,
2013-11-01 07:30:00,59.0,56.7,29.57,NNW,343,0.0,2.0,92,0.04,,,0.34,Wunderground v.1.15,2013-11-01 11:30:00,
2013-11-01 07:36:00,59.1,56.8,29.57,NNW,338,1.0,2.0,92,0.00,,,0.34,Wunderground v.1.15,2013-11-01 11:36:00,
2013-11-01 07:41:00,59.2,56.9,29.58,ESE,114,1.0,1.0,92,0.00,,,0.34,Wunderground v.1.15,2013-11-01 11:41:00,
2013-11-01 07:47:00,59.1,56.8,29.58,ESE,114,0.0,1.0,92,0.00,,,0.34,Wunderground v.1.15,2013-11-01 11:47:00,
2013-11-01 07:53:00,59.3,56.7,29.58,NW,325,0.0,4.0,91,0.00,,,0.34,Wunderground v.1.15,2013-11-01 11:53:00,
2013-11-01 07:59:00,59.6,56.7,29.58,West,265,1.0,4.0,90,0.00,,,0.34,Wunderground v.1.15,2013-11-01 11:59:00,
2013-11-01 08:05:00,59.8,56.6,29.59,NNW,338,1.0,4.0,89,0.00,,,0.34,Wunderground v.1.15,2013-11-01 12:05:00,
2013-11-01 08:11:00,60.2,56.3,29.59,ESE,113,1.0,1.0,87,0.00,,,0.34,Wunderground v.1.15,2013-11-01 12:11:00,
2013-11-01 08:16:00,60.9,56.4,29.59,ESE,111,2.0,6.0,85,0.00,,,0.34,Wunderground v.1.15,2013-11-01 12:16:00,
2013-11-01 08:21:00,61.4,56.5,29.59,SE,128,3.0,5.0,84,0.00,,,0.34,Wunderground v.1.15,2013-11-01 12:21:00,
2013-11-01 08:28:00,61.7,56.1,29.59,SE,126,3.0,5.0,82,0.00,,,0.34,Wunderground v.1.15,2013-11-01 12:28:00,
2013-11-01 08:34:00,61.7,56.1,29.59,ESE,111,3.0,3.0,82,0.00,,,0.34,Wunderground v.1.15,2013-11-01 12:34:00,
2013-11-01 08:39:00,61.6,56.4,29.59,East,97,2.0,3.0,83,0.00,,,0.34,Wunderground v.1.15,2013-11-01 12:39:00,
2013-11-01 08:45:00,60.9,57.0,29.60,SE,130,2.0,3.0,87,0.00,,,0.34,Wunderground v.1.15,2013-11-01 12:45:00,
2013-11-01 08:51:00,60.5,56.9,29.60,SE,134,2.0,5.0,88,0.00,,,0.34,Wunderground v.1.15,2013-11-01 12:51:00,
2013-11-01 08:56:00,60.5,56.9,29.60,ESE,115,2.0,5.0,88,0.00,,,0.34,Wunderground v.1.15,2013-11-01 12:56:00,
2013-11-01 09:02:00,60.7,57.1,29.60,ESE,113,1.0,3.0,88,0.00,,,0.34,Wunderground v.1.15,2013-11-01 13:02:00,
2013-11-01 09:07:00,60.9,57.3,29.60,ESE,113,1.0,3.0,88,0.00,,,0.34,Wunderground v.1.15,2013-11-01 13:07:00,
2013-11-01 09:12:00,61.2,57.3,29.60,WNW,298,1.0,1.0,87,0.00,,,0.34,Wunderground v.1.15,2013-11-01 13:12:00,
2013-11-01 09:20:00,61.8,57.6,29.61,WNW,293,1.0,4.0,86,0.00,,,0.34,Wunderground v.1.15,2013-11-01 13:20:00,
2013-11-01 09:25:00,62.0,57.4,29.61,WNW,288,2.0,2.0,85,0.00,,,0.34,Wunderground v.1.15,2013-11-01 13:25:00,
2013-11-01 09:31:00,62.2,57.0,29.61,West,270,1.0,5.0,83,0.00,,,0.34,Wunderground v.1.15,2013-11-01 13:31:00,
2013-11-01 09:37:00,62.6,56.7,29.61,WNW,287,1.0,3.0,81,0.00,,,0.34,Wunderground v.1.15,2013-11-01 13:37:00,
2013-11-01 09:42:00,63.1,55.8,29.61,West,279,2.0,4.0,77,0.00,,,0.34,Wunderground v.1.15,2013-11-01 13:42:00,
2013-11-01 09:52:00,64.0,55.2,29.60,WNW,288,3.0,3.0,73,0.00,,,0.34,Wunderground v.1.15,2013-11-01 13:52:00,
2013-11-01 09:57:00,64.0,55.2,29.61,WNW,292,3.0,3.0,73,0.00,,,0.34,Wunderground v.1.15,2013-11-01 13:57:00,
2013-11-01 10:02:00,63.8,55.4,29.61,West,276,3.0,8.0,74,0.00,,,0.34,Wunderground v.1.15,2013-11-01 14:02:00,
2013-11-01 10:08:00,64.0,55.2,29.60,West,276,3.0,8.0,73,0.00,,,0.34,Wunderground v.1.15,2013-11-01 14:08:00,
2013-11-01 10:26:00,64.8,55.2,29.60,West,281,3.0,3.0,71,0.00,,,0.34,Wunderground v.1.15,2013-11-01 14:26:00,
2013-11-01 10:32:00,65.2,55.9,29.60,West,267,3.0,4.0,72,0.00,,,0.34,Wunderground v.1.15,2013-11-01 14:32:00,
2013-11-01 10:37:00,65.0,55.4,29.60,NW,322,2.0,4.0,71,0.00,,,0.34,Wunderground v.1.15,2013-11-01 14:37:00,
2013-11-01 10:44:00,65.6,56.3,29.61,West,276,1.0,2.0,72,0.00,,,0.34,Wunderground v.1.15,2013-11-01 14:44:00,
2013-11-01 10:50:00,65.8,55.3,29.62,NNW,331,2.0,2.0,69,0.00,,,0.34,Wunderground v.1.15,2013-11-01 14:50:00,
2013-11-01 10:55:00,66.1,54.8,29.61,West,274,2.0,2.0,67,0.00,,,0.34,Wunderground v.1.15,2013-11-01 14:55:00,
2013-11-01 11:00:00,66.3,55.0,29.61,WNW,288,2.0,4.0,67,0.00,,,0.34,Wunderground v.1.15,2013-11-01 15:00:00,
2013-11-01 11:06:00,66.5,53.9,29.60,West,259,3.0,5.0,64,0.00,,,0.34,Wunderground v.1.15,2013-11-01 15:06:00,
2013-11-01 11:12:00,66.7,53.3,29.60,WNW,284,5.0,7.0,62,0.00,,,0.34,Wunderground v.1.15,2013-11-01 15:12:00,
2013-11-01 11:19:00,67.7,53.8,29.60,WNW,285,6.0,11.0,61,0.00,,,0.34,Wunderground v.1.15,2013-11-01 15:19:00,
2013-11-01 11:24:00,68.8,54.3,29.60,West,281,5.0,6.0,60,0.00,,,0.34,Wunderground v.1.15,2013-11-01 15:24:00,
2013-11-01 11:29:00,68.8,53.4,29.61,WNW,296,5.0,9.0,58,0.00,,,0.34,Wunderground v.1.15,2013-11-01 15:29:00,
2013-11-01 11:36:00,69.2,53.8,29.61,WSW,254,5.0,7.0,58,0.00,,,0.34,Wunderground v.1.15,2013-11-01 15:36:00,
2013-11-01 11:41:00,69.4,53.0,29.61,West,269,4.0,4.0,56,0.00,,,0.34,Wunderground v.1.15,2013-11-01 15:41:00,
2013-11-01 11:47:00,69.7,52.8,29.61,SW,236,6.0,11.0,55,0.00,,,0.34,Wunderground v.1.15,2013-11-01 15:47:00,
2013-11-01 11:52:00,70.3,52.4,29.61,WSW,240,7.0,11.0,53,0.00,,,0.34,Wunderground v.1.15,2013-11-01 15:52:00,
2013-11-01 11:57:00,69.9,50.9,29.61,SW,225,7.0,11.0,51,0.00,,,0.34,Wunderground v.1.15,2013-11-01 15:57:00,
2013-11-01 12:02:00,69.8,49.8,29.61,West,277,8.0,13.0,49,0.00,,,0.34,Wunderground v.1.15,2013-11-01 16:02:00,
2013-11-01 12:07:00,70.0,50.5,29.61,West,271,7.0,13.0,50,0.00,,,0.34,Wunderground v.1.15,2013-11-01 16:07:00,
2013-11-01 12:13:00,70.4,50.9,29.61,WSW,253,5.0,9.0,50,0.00,,,0.34,Wunderground v.1.15,2013-11-01 16:13:00,
2013-11-01 12:18:00,70.4,48.6,29.61,West,274,7.0,11.0,46,0.00,,,0.34,Wunderground v.1.15,2013-11-01 16:18:00,
2013-11-01 12:24:00,70.6,49.4,29.61,WNW,296,9.0,10.0,47,0.00,,,0.34,Wunderground v.1.15,2013-11-01 16:24:00,
2013-11-01 12:29:00,70.5,48.1,29.61,West,275,9.0,17.0,45,0.00,,,0.34,Wunderground v.1.15,2013-11-01 16:29:00,
2013-11-01 12:37:00,71.0,49.7,29.61,West,269,7.0,9.0,47,0.00,,,0.34,Wunderground v.1.15,2013-11-01 16:37:00,
2013-11-01 12:44:00,71.2,48.8,29.61,West,261,7.0,8.0,45,0.00,,,0.34,Wunderground v.1.15,2013-11-01 16:44:00,
2013-11-01 12:51:00,71.7,49.2,29.60,NW,314,7.0,7.0,45,0.00,,,0.34,Wunderground v.1.15,2013-11-01 16:51:00,
2013-11-01 12:56:00,72.0,49.5,29.60,WNW,297,7.0,7.0,45,0.00,,,0.34,Wunderground v.1.15,2013-11-01 16:56:00,
2013-11-01 13:02:00,72.1,49.6,29.60,West,277,5.0,6.0,45,0.00,,,0.34,Wunderground v.1.15,2013-11-01 17:02:00,
2013-11-01 13:08:00,71.7,48.6,29.60,West,271,6.0,12.0,44,0.00,,,0.34,Wunderground v.1.15,2013-11-01 17:08:00,
2013-11-01 13:14:00,72.2,50.3,29.60,SW,223,6.0,8.0,46,0.00,,,0.34,Wunderground v.1.15,2013-11-01 17:14:00,
2013-11-01 13:20:00,72.7,49.5,29.60,West,270,6.0,7.0,44,0.00,,,0.34,Wunderground v.1.15,2013-11-01 17:20:00,
2013-11-01 13:26:00,72.8,47.7,29.60,WSW,245,7.0,14.0,41,0.00,,,0.34,Wunderground v.1.15,2013-11-01 17:26:00,
2013-11-01 13:31:00,72.8,48.4,29.60,West,274,6.0,6.0,42,0.00,,,0.34,Wunderground v.1.15,2013-11-01 17:31:00,
2013-11-01 13:36:00,72.6,48.2,29.60,West,269,6.0,8.0,42,0.00,,,0.34,Wunderground v.1.15,2013-11-01 17:36:00,
2013-11-01 13:43:00,72.6,48.2,29.59,West,259,7.0,7.0,42,0.00,,,0.34,Wunderground v.1.15,2013-11-01 17:43:00,
2013-11-01 13:48:00,72.6,47.5,29.59,SW,221,8.0,11.0,41,0.00,,,0.34,Wunderground v.1.15,2013-11-01 17:48:00,
2013-11-01 13:54:00,73.0,48.5,29.59,West,274,6.0,8.0,42,0.00,,,0.34,Wunderground v.1.15,2013-11-01 17:54:00,
2013-11-01 14:00:00,73.3,48.2,29.59,WSW,247,5.0,6.0,41,0.00,,,0.34,Wunderground v.1.15,2013-11-01 18:00:00,
2013-11-01 14:07:00,72.6,47.5,29.59,WNW,288,8.0,11.0,41,0.00,,,0.34,Wunderground v.1.15,2013-11-01 18:07:00,
2013-11-01 14:12:00,72.8,48.4,29.59,West,260,8.0,10.0,42,0.00,,,0.34,Wunderground v.1.15,2013-11-01 18:12:00,
2013-11-01 14:17:00,72.8,46.4,29.59,WNW,290,8.0,10.0,39,0.00,,,0.34,Wunderground v.1.15,2013-11-01 18:17:00,
2013-11-01 14:23:00,72.8,47.1,29.58,WNW,288,6.0,8.0,40,0.00,,,0.34,Wunderground v.1.15,2013-11-01 18:23:00,
2013-11-01 14:29:00,73.3,48.2,29.58,WSW,244,3.0,8.0,41,0.00,,,0.34,Wunderground v.1.15,2013-11-01 18:29:00,
2013-11-01 14:34:00,73.2,47.4,29.58,West,269,3.0,4.0,40,0.00,,,0.34,Wunderground v.1.15,2013-11-01 18:34:00,
2013-11-01 14:39:00,73.4,46.9,29.58,West,266,4.0,7.0,39,0.00,,,0.34,Wunderground v.1.15,2013-11-01 18:39:00,
2013-11-01 14:45:00,73.5,47.7,29.57,WNW,295,4.0,4.0,40,0.00,,,0.34,Wunderground v.1.15,2013-11-01 18:45:00,
2013-11-01 14:51:00,73.7,48.5,29.57,West,272,3.0,6.0,41,0.00,,,0.34,Wunderground v.1.15,2013-11-01 18:51:00,
2013-11-01 14:56:00,73.7,46.5,29.57,WNW,284,4.0,6.0,38,0.00,,,0.34,Wunderground v.1.15,2013-11-01 18:56:00,
2013-11-01 15:02:00,73.7,47.9,29.57,West,271,5.0,9.0,40,0.00,,,0.34,Wunderground v.1.15,2013-11-01 19:02:00,
2013-11-01 15:07:00,73.6,48.4,29.57,WNW,293,5.0,9.0,41,0.00,,,0.34,Wunderground v.1.15,2013-11-01 19:07:00,
2013-11-01 15:14:00,74.0,46.8,29.57,WNW,290,3.0,6.0,38,0.00,,,0.34,Wunderground v.1.15,2013-11-01 19:14:00,
2013-11-01 15:21:00,73.9,48.1,29.57,WNW,287,5.0,5.0,40,0.00,,,0.34,Wunderground v.1.15,2013-11-01 19:21:00,
2013-11-01 15:27:00,74.0,47.5,29.57,WNW,297,4.0,5.0,39,0.00,,,0.34,Wunderground v.1.15,2013-11-01 19:27:00,
2013-11-01 15:32:00,73.9,46.7,29.57,West,281,5.0,6.0,38,0.00,,,0.34,Wunderground v.1.15,2013-11-01 19:32:00,
2013-11-01 15:38:00,74.1,46.9,29.57,WNW,283,4.0,9.0,38,0.00,,,0.34,Wunderground v.1.15,2013-11-01 19:38:00,
2013-11-01 15:43:00,73.8,45.9,29.57,WNW,290,5.0,8.0,37,0.00,,,0.34,Wunderground v.1.15,2013-11-01 19:43:00,
2013-11-01 15:49:00,74.1,47.6,29.57,WNW,292,4.0,8.0,39,0.00,,,0.34,Wunderground v.1.15,2013-11-01 19:49:00,
2013-11-01 15:55:00,74.2,47.0,29.57,WNW,292,2.0,4.0,38,0.00,,,0.34,Wunderground v.1.15,2013-11-01 19:55:00,
2013-11-01 16:00:00,74.3,47.0,29.57,WNW,284,2.0,2.0,38,0.00,,,0.34,Wunderground v.1.15,2013-11-01 20:00:00,
2013-11-01 16:06:00,74.2,47.0,29.57,WNW,290,3.0,6.0,38,0.00,,,0.34,Wunderground v.1.15,2013-11-01 20:06:00,
2013-11-01 16:11:00,74.3,47.7,29.57,WNW,286,2.0,2.0,39,0.00,,,0.34,Wunderground v.1.15,2013-11-01 20:11:00,
2013-11-01 16:17:00,74.1,44.7,29.57,WNW,287,1.0,4.0,35,0.00,,,0.34,Wunderground v.1.15,2013-11-01 20:17:00,
2013-11-01 16:23:00,73.9,47.4,29.58,WNW,287,1.0,2.0,39,0.00,,,0.34,Wunderground v.1.15,2013-11-01 20:23:00,
2013-11-01 16:28:00,73.8,47.3,29.58,West,280,2.0,4.0,39,0.00,,,0.34,Wunderground v.1.15,2013-11-01 20:28:00,
2013-11-01 16:34:00,73.8,45.9,29.58,West,280,2.0,2.0,37,0.00,,,0.34,Wunderground v.1.15,2013-11-01 20:34:00,
2013-11-01 16:39:00,73.8,45.9,29.58,WNW,298,1.0,4.0,37,0.00,,,0.34,Wunderground v.1.15,2013-11-01 20:39:00,
2013-11-01 16:44:00,73.5,46.3,29.58,WNW,290,2.0,5.0,38,0.00,,,0.34,Wunderground v.1.15,2013-11-01 20:44:00,
2013-11-01 16:49:00,73.6,47.1,29.58,WNW,290,2.0,5.0,39,0.00,,,0.34,Wunderground v.1.15,2013-11-01 20:49:00,
2013-11-01 16:54:00,73.5,45.6,29.58,WNW,290,1.0,2.0,37,0.00,,,0.34,Wunderground v.1.15,2013-11-01 20:54:00,
2013-11-01 17:01:00,73.4,46.2,29.58,WNW,290,1.0,1.0,38,0.00,,,0.34,Wunderground v.1.15,2013-11-01 21:01:00,
2013-11-01 17:07:00,72.7,46.3,29.57,WNW,290,1.0,2.0,39,0.00,,,0.34,Wunderground v.1.15,2013-11-01 21:07:00,
2013-11-01 17:13:00,72.1,45.1,29.57,WNW,290,0.0,0.0,38,0.00,,,0.34,Wunderground v.1.15,2013-11-01 21:13:00,
2013-11-01 17:18:00,71.8,46.2,29.57,WNW,290,0.0,0.0,40,0.00,,,0.34,Wunderground v.1.15,2013-11-01 21:18:00,
2013-11-01 17:24:00,71.3,46.4,29.57,WNW,290,0.0,0.0,41,0.00,,,0.34,Wunderground v.1.15,2013-11-01 21:24:00,
2013-11-01 17:29:00,70.8,45.9,29.57,WNW,290,0.0,2.0,41,0.00,,,0.34,Wunderground v.1.15,2013-11-01 21:29:00,
2013-11-01 17:34:00,70.7,47.1,29.57,WNW,290,1.0,1.0,43,0.00,,,0.34,Wunderground v.1.15,2013-11-01 21:34:00,
2013-11-01 17:40:00,70.2,46.0,29.57,WNW,290,0.0,1.0,42,0.00,,,0.34,Wunderground v.1.15,2013-11-01 21:40:00,
2013-11-01 17:45:00,69.6,46.1,29.58,WNW,290,0.0,0.0,43,0.00,,,0.34,Wunderground v.1.15,2013-11-01 21:45:00,
2013-11-01 17:51:00,68.3,46.7,29.58,WNW,290,0.0,0.0,46,0.00,,,0.34,Wunderground v.1.15,2013-11-01 21:51:00,
2013-11-01 17:56:00,66.9,47.1,29.58,WNW,290,0.0,0.0,49,0.00,,,0.34,Wunderground v.1.15,2013-11-01 21:56:00,
2013-11-01 18:02:00,65.6,47.5,29.58,WNW,296,0.0,0.0,52,0.00,,,0.34,Wunderground v.1.15,2013-11-01 22:02:00,
2013-11-01 18:07:00,64.6,47.1,29.58,WNW,296,0.0,0.0,53,0.00,,,0.34,Wunderground v.1.15,2013-11-01 22:07:00,
2013-11-01 18:14:00,64.0,47.5,29.58,WNW,296,0.0,0.0,55,0.00,,,0.34,Wunderground v.1.15,2013-11-01 22:14:00,
2013-11-01 18:21:00,62.6,47.1,29.58,WNW,296,0.0,0.0,57,0.00,,,0.34,Wunderground v.1.15,2013-11-01 22:21:00,
2013-11-01 18:27:00,60.5,47.0,29.59,WNW,296,0.0,0.0,61,0.00,,,0.34,Wunderground v.1.15,2013-11-01 22:27:00,
2013-11-01 18:32:00,59.3,47.1,29.59,WNW,296,0.0,0.0,64,0.00,,,0.34,Wunderground v.1.15,2013-11-01 22:32:00,
2013-11-01 18:37:00,58.3,47.0,29.59,WNW,296,0.0,0.0,66,0.00,,,0.34,Wunderground v.1.15,2013-11-01 22:37:00,
2013-11-01 18:43:00,56.6,46.5,29.59,WNW,296,0.0,0.0,69,0.00,,,0.34,Wunderground v.1.15,2013-11-01 22:43:00,
2013-11-01 18:51:00,54.0,45.2,29.59,WNW,296,0.0,0.0,72,0.00,,,0.34,Wunderground v.1.15,2013-11-01 22:51:00,
2013-11-01 18:57:00,52.8,45.4,29.59,WNW,296,0.0,0.0,76,0.00,,,0.34,Wunderground v.1.15,2013-11-01 22:57:00,
2013-11-01 19:02:00,52.3,45.6,29.59,WNW,296,0.0,0.0,78,0.00,,,0.34,Wunderground v.1.15,2013-11-01 23:02:00,
2013-11-01 19:07:00,52.0,45.4,29.60,WNW,296,0.0,0.0,78,0.00,,,0.34,Wunderground v.1.15,2013-11-01 23:07:00,
2013-11-01 19:12:00,51.4,45.4,29.60,WNW,296,0.0,0.0,80,0.00,,,0.34,Wunderground v.1.15,2013-11-01 23:12:00,
2013-11-01 19:21:00,50.3,44.7,29.60,WNW,296,0.0,0.0,81,0.00,,,0.34,Wunderground v.1.15,2013-11-01 23:21:00,
2013-11-01 19:27:00,49.7,44.7,29.61,WNW,296,0.0,0.0,83,0.00,,,0.34,Wunderground v.1.15,2013-11-01 23:27:00,
2013-11-01 19:34:00,49.0,44.4,29.61,WNW,296,0.0,0.0,84,0.00,,,0.34,Wunderground v.1.15,2013-11-01 23:34:00,
2013-11-01 19:40:00,48.5,43.9,29.61,WNW,296,0.0,0.0,84,0.00,,,0.34,Wunderground v.1.15,2013-11-01 23:40:00,
2013-11-01 19:45:00,47.9,43.6,29.61,WNW,296,0.0,0.0,85,0.00,,,0.34,Wunderground v.1.15,2013-11-01 23:45:00,
2013-11-01 19:51:00,47.6,43.6,29.61,WNW,296,0.0,0.0,86,0.00,,,0.34,Wunderground v.1.15,2013-11-01 23:51:00,
2013-11-01 19:57:00,47.3,43.6,29.61,WNW,296,0.0,0.0,87,0.00,,,0.34,Wunderground v.1.15,2013-11-01 23:57:00,
2013-11-01 20:02:00,47.1,43.7,29.61,WNW,296,0.0,0.0,88,0.00,,,0.34,Wunderground v.1.15,2013-11-02 00:02:00,
2013-11-01 20:07:00,46.9,43.5,29.61,WNW,296,0.0,0.0,88,0.00,,,0.34,Wunderground v.1.15,2013-11-02 00:07:00,
2013-11-01 20:14:00,46.8,43.7,29.62,WNW,296,0.0,0.0,89,0.00,,,0.34,Wunderground v.1.15,2013-11-02 00:14:00,
2013-11-01 20:20:00,46.7,43.6,29.62,WNW,296,0.0,0.0,89,0.00,,,0.34,Wunderground v.1.15,2013-11-02 00:20:00,
2013-11-01 20:25:00,46.6,43.5,29.62,WNW,296,0.0,0.0,89,0.00,,,0.34,Wunderground v.1.15,2013-11-02 00:25:00,
2013-11-01 20:30:00,46.2,43.1,29.62,WNW,296,0.0,0.0,89,0.00,,,0.34,Wunderground v.1.15,2013-11-02 00:30:00,
2013-11-01 20:36:00,45.8,43.0,29.63,WNW,296,0.0,0.0,90,0.00,,,0.34,Wunderground v.1.15,2013-11-02 00:36:00,
2013-11-01 20:43:00,45.7,42.9,29.63,WNW,296,0.0,0.0,90,0.00,,,0.34,Wunderground v.1.15,2013-11-02 00:43:00,
2013-11-01 20:48:00,45.7,43.2,29.63,WNW,296,0.0,0.0,91,0.00,,,0.34,Wunderground v.1.15,2013-11-02 00:48:00,
2013-11-01 20:54:00,45.8,43.3,29.63,WNW,296,0.0,0.0,91,0.00,,,0.34,Wunderground v.1.15,2013-11-02 00:54:00,
2013-11-01 21:00:00,46.0,43.8,29.64,WNW,296,0.0,0.0,92,0.00,,,0.34,Wunderground v.1.15,2013-11-02 01:00:00,
2013-11-01 21:06:00,45.9,43.4,29.63,WNW,296,0.0,0.0,91,0.00,,,0.34,Wunderground v.1.15,2013-11-02 01:06:00,
2013-11-01 21:12:00,45.9,43.7,29.63,WNW,296,0.0,0.0,92,0.00,,,0.34,Wunderground v.1.15,2013-11-02 01:12:00,
2013-11-01 21:17:00,45.9,43.7,29.63,WNW,296,0.0,0.0,92,0.00,,,0.34,Wunderground v.1.15,2013-11-02 01:17:00,
2013-11-01 21:22:00,45.9,43.7,29.63,WNW,296,0.0,0.0,92,0.00,,,0.34,Wunderground v.1.15,2013-11-02 01:22:00,
2013-11-01 21:29:00,45.8,43.3,29.63,WNW,296,0.0,0.0,91,0.00,,,0.34,Wunderground v.1.15,2013-11-02 01:29:00,
2013-11-01 21:36:00,45.6,43.4,29.64,WNW,296,0.0,0.0,92,0.00,,,0.34,Wunderground v.1.15,2013-11-02 01:36:00,
2013-11-01 21:42:00,45.7,43.5,29.64,WNW,296,0.0,0.0,92,0.00,,,0.34,Wunderground v.1.15,2013-11-02 01:42:00,
2013-11-01 21:48:00,45.5,43.0,29.64,WNW,296,0.0,0.0,91,0.00,,,0.34,Wunderground v.1.15,2013-11-02 01:48:00,
2013-11-01 21:54:00,45.4,42.9,29.64,WNW,296,0.0,0.0,91,0.00,,,0.34,Wunderground v.1.15,2013-11-02 01:54:00,
2013-11-01 21:59:00,45.4,43.2,29.64,WNW,296,0.0,0.0,92,0.00,,,0.34,Wunderground v.1.15,2013-11-02 01:59:00,
2013-11-01 22:05:00,45.5,43.3,29.64,WNW,296,0.0,0.0,92,0.00,,,0.34,Wunderground v.1.15,2013-11-02 02:05:00,
2013-11-01 22:10:00,45.1,42.6,29.64,WNW,296,0.0,0.0,91,0.00,,,0.34,Wunderground v.1.15,2013-11-02 02:10:00,
2013-11-01 22:15:00,44.7,42.2,29.64,WNW,296,0.0,0.0,91,0.00,,,0.34,Wunderground v.1.15,2013-11-02 02:15:00,
2013-11-01 22:21:00,44.4,41.9,29.65,WNW,296,0.0,0.0,91,0.00,,,0.34,Wunderground v.1.15,2013-11-02 02:21:00,
2013-11-01 22:27:00,44.1,41.6,29.64,WNW,296,0.0,0.0,91,0.00,,,0.34,Wunderground v.1.15,2013-11-02 02:27:00,
2013-11-01 22:36:00,43.6,41.4,29.65,WNW,296,0.0,0.0,92,0.00,,,0.34,Wunderground v.1.15,2013-11-02 02:36:00,
2013-11-01 22:42:00,43.2,41.0,29.65,WNW,296,0.0,0.0,92,0.00,,,0.34,Wunderground v.1.15,2013-11-02 02:42:00,
2013-11-01 22:47:00,43.0,40.8,29.65,WNW,296,0.0,0.0,92,0.00,,,0.34,Wunderground v.1.15,2013-11-02 02:47:00,
2013-11-01 22:53:00,43.0,40.8,29.65,WNW,296,0.0,0.0,92,0.00,,,0.34,Wunderground v.1.15,2013-11-02 02:53:00,
2013-11-01 22:58:00,43.0,41.1,29.65,WNW,296,0.0,0.0,93,0.00,,,0.34,Wunderground v.1.15,2013-11-02 02:58:00,
2013-11-01 23:05:00,43.4,41.5,29.65,WNW,296,0.0,0.0,93,0.00,,,0.34,Wunderground v.1.15,2013-11-02 03:05:00,
2013-11-01 23:11:00,44.0,42.4,29.66,WNW,296,0.0,0.0,94,0.00,,,0.34,Wunderground v.1.15,2013-11-02 03:11:00,
2013-11-01 23:16:00,44.3,42.7,29.66,WNW,296,0.0,0.0,94,0.00,,,0.34,Wunderground v.1.15,2013-11-02 03:16:00,
2013-11-01 23:21:00,44.7,43.1,29.66,WNW,296,0.0,0.0,94,0.00,,,0.34,Wunderground v.1.15,2013-11-02 03:21:00,
2013-11-01 23:27:00,45.4,43.8,29.66,WNW,296,0.0,0.0,94,0.00,,,0.34,Wunderground v.1.15,2013-11-02 03:27:00,
2013-11-01 23:33:00,45.3,43.4,29.66,WNW,296,0.0,0.0,93,0.00,,,0.34,Wunderground v.1.15,2013-11-02 03:33:00,
2013-11-01 23:39:00,45.2,43.3,29.66,WNW,296,0.0,0.0,93,0.00,,,0.34,Wunderground v.1.15,2013-11-02 03:39:00,
2013-11-01 23:45:00,45.1,43.2,29.66,WNW,296,0.0,0.0,93,0.00,,,0.34,Wunderground v.1.15,2013-11-02 03:45:00,
2013-11-01 23:51:00,44.9,43.0,29.66,WNW,296,0.0,0.0,93,0.00,,,0.34,Wunderground v.1.15,2013-11-02 03:51:00,
2013-11-01 23:57:00,44.7,42.8,29.66,WNW,296,0.0,0.0,93,0.00,,,0.34,Wunderground v.1.15,2013-11-02 03:57:00,